Location: Bluff Heights
(33.7692°N, 118.1592°W)
Time: 09:04:00
(UTC+00:00)

XW-2B - Pass Details

Date: 30 September 2021
Orbit: 503 x 524 km, 97.5° (Epoch: 22 October)

Event Time Altitude Azimuth Distance (km) Brightness Sun altitude
Rises 02:01:45 0° 202° (SSW) 2,641 ? -5.5°
Reaches altitude 10° 02:04:24 10° 222° (SW) 1,756 ? -6.1°
Maximum altitude 02:06:59 17° 265° (W) 1,352 ? -6.6°
Drops below altitude 10° 02:09:34 10° 308° (NW) 1,760 ? -7.2°
Sets 02:12:14 0° 329° (NNW) 2,650 ? -7.7°
